• In Belarus
  • List of Countries
  • For 7 days
  • Water Temperature
  • Satellite Maps
  • Weather Map
  • Weather Widgets
  • user-avatar
    Login

    Hourly Weather Jalalabad

    Today, 11 December, Tuesday

    Time Temperature Precipitation Wind Pressure Humidity
    00:00 +9°C° 0.1 mm 0 mps 711 mmHg 75%
    01:00 +10°C° 0.1 mm 1 mps 711 mmHg 75%
    02:00 +9°C° 0.1 mm 1 mps 711 mmHg 74%
    03:00 +9°C° 0.1 mm 1 mps 711 mmHg 73%
    04:00 +9°C° 0.1 mm 1 mps 711 mmHg 73%
    05:00 +9°C° 0 mm 1 mps 710 mmHg 72%
    06:00 +9°C° 0.2 mm 1 mps 710 mmHg 70%
    07:00 +9°C° 0.2 mm 1 mps 710 mmHg 69%
    08:00 +9°C° 0.2 mm 1 mps 711 mmHg 67%
    09:00 +10°C° 0.3 mm 1 mps 711 mmHg 63%
    10:00 +11°C° 0.3 mm 1 mps 711 mmHg 58%
    11:00 +13°C° 0 mm 1 mps 711 mmHg 51%
    12:00 +13°C° 0.3 mm 2 mps 710 mmHg 51%
    13:00 +13°C° 0.3 mm 2 mps 710 mmHg 50%
    14:00 +14°C° 0.3 mm 2 mps 710 mmHg 49%
    15:00 +13°C° 0.2 mm 2 mps 710 mmHg 51%
    16:00 +13°C° 0.2 mm 2 mps 710 mmHg 52%
    17:00 +12°C° 0 mm 1 mps 710 mmHg 57%
    18:00 +12°C° 0.2 mm 1 mps 710 mmHg 58%
    19:00 +11°C° 0.2 mm 1 mps 710 mmHg 59%
    20:00 +11°C° 0.2 mm 1 mps 711 mmHg 60%
    21:00 +10°C° 0.1 mm 1 mps 711 mmHg 60%
    22:00 +10°C° 0.1 mm 1 mps 711 mmHg 59%
    23:00 +10°C° 0.1 mm 1 mps 711 mmHg 59%

    Tomorrow, 12 December, Wednesday

    Time Temperature Precipitation Wind Pressure Humidity
    00:00 +10°C° 0.1 mm 1 mps 711 mmHg 59%
    01:00 +9°C° 0.1 mm 1 mps 711 mmHg 59%
    02:00 +8°C° 0.1 mm 2 mps 711 mmHg 58%
    03:00 +8°C° 0.1 mm 2 mps 711 mmHg 57%
    04:00 +8°C° 0.1 mm 2 mps 711 mmHg 56%
    05:00 +7°C° 0.1 mm 2 mps 711 mmHg 56%
    06:00 +7°C° 0.1 mm 2 mps 711 mmHg 54%
    07:00 +8°C° 0.1 mm 2 mps 712 mmHg 53%
    08:00 +9°C° 0.1 mm 1 mps 712 mmHg 51%
    09:00 +10°C° 0.1 mm 1 mps 712 mmHg 47%
    10:00 +11°C° 0.1 mm 1 mps 712 mmHg 42%
    11:00 +13°C° 0.1 mm 1 mps 712 mmHg 38%
    12:00 +13°C° 0.1 mm 1 mps 712 mmHg 37%
    13:00 +14°C° 0.1 mm 2 mps 711 mmHg 36%
    14:00 +14°C° 0.1 mm 2 mps 711 mmHg 35%
    15:00 +13°C° 0 mm 2 mps 711 mmHg 37%
    16:00 +13°C° 0 mm 1 mps 711 mmHg 40%
    17:00 +12°C° 0 mm 1 mps 711 mmHg 42%
    18:00 +11°C° 0 mm 1 mps 712 mmHg 42%
    19:00 +11°C° 0 mm 1 mps 713 mmHg 42%
    20:00 +10°C° 0 mm 1 mps 713 mmHg 43%
    21:00 +10°C° 0 mm 1 mps 713 mmHg 42%
    22:00 +9°C° 0 mm 1 mps 713 mmHg 41%
    23:00 +9°C° 0 mm 1 mps 713 mmHg 40%

    Day after tomorrow, 13 December, Thursday

    Time Temperature Precipitation Wind Pressure Humidity
    00:00 +9°C° 0 mm 1 mps 713 mmHg 40%
    01:00 +8°C° 0 mm 1 mps 713 mmHg 39%
    02:00 +8°C° 0 mm 1 mps 713 mmHg 39%
    03:00 +8°C° 0 mm 1 mps 713 mmHg 38%
    04:00 +7°C° 0 mm 1 mps 713 mmHg 38%
    05:00 +7°C° 0 mm 1 mps 713 mmHg 37%
    06:00 +7°C° 0 mm 1 mps 713 mmHg 36%
    07:00 +8°C° 0 mm 1 mps 714 mmHg 35%
    08:00 +8°C° 0 mm 1 mps 714 mmHg 34%
    09:00 +10°C° 0 mm 1 mps 714 mmHg 32%
    10:00 +12°C° 0 mm 1 mps 714 mmHg 29%
    11:00 +14°C° 0 mm 1 mps 714 mmHg 27%
    12:00 +14°C° 0 mm 1 mps 713 mmHg 27%
    13:00 +15°C° 0 mm 1 mps 713 mmHg 27%
    14:00 +15°C° 0 mm 1 mps 712 mmHg 26%
    15:00 +14°C° 0 mm 1 mps 712 mmHg 29%
    16:00 +13°C° 0 mm 1 mps 712 mmHg 32%
    17:00 +11°C° 0 mm 1 mps 712 mmHg 35%
    18:00 +11°C° 0 mm 1 mps 712 mmHg 35%
    19:00 +10°C° 0 mm 1 mps 713 mmHg 35%
    20:00 +10°C° 0 mm 1 mps 714 mmHg 36%
    21:00 +9°C° 0 mm 1 mps 714 mmHg 34%
    22:00 +9°C° 0 mm 1 mps 713 mmHg 32%
    23:00 +9°C° 0 mm 1 mps 713 mmHg 30%

    14 December, Friday

    Time Temperature Precipitation Wind Pressure Humidity
    00:00 +9°C° 0 mm 1 mps 713 mmHg 29%
    01:00 +8°C° 0 mm 1 mps 713 mmHg 28%
    02:00 +8°C° 0 mm 1 mps 713 mmHg 27%
    03:00 +8°C° 0 mm 1 mps 713 mmHg 27%
    04:00 +8°C° 0 mm 1 mps 713 mmHg 27%
    05:00 +7°C° 0 mm 1 mps 712 mmHg 26%
    06:00 +8°C° 0 mm 1 mps 713 mmHg 26%
    07:00 +8°C° 0 mm 1 mps 713 mmHg 26%
    08:00 +8°C° 0 mm 1 mps 713 mmHg 26%
    09:00 +10°C° 0 mm 1 mps 713 mmHg 25%
    10:00 +13°C° 0 mm 1 mps 713 mmHg 24%
    11:00 +15°C° 0 mm 1 mps 713 mmHg 23%
    12:00 +15°C° 0 mm 1 mps 713 mmHg 23%
    13:00 +16°C° 0 mm 1 mps 713 mmHg 23%
    14:00 +16°C° 0 mm 1 mps 712 mmHg 22%
    15:00 +15°C° 0 mm 1 mps 712 mmHg 24%
    16:00 +14°C° 0 mm 1 mps 712 mmHg 25%
    17:00 +12°C° 0 mm 1 mps 712 mmHg 27%
    18:00 +12°C° 0 mm 1 mps 713 mmHg 27%
    19:00 +11°C° 0 mm 1 mps 714 mmHg 27%
    20:00 +10°C° 0 mm 1 mps 714 mmHg 27%
    21:00 +10°C° 0 mm 1 mps 714 mmHg 26%
    22:00 +10°C° 0 mm 1 mps 714 mmHg 25%
    23:00 +10°C° 0 mm 1 mps 714 mmHg 24%

    15 December, Saturday

    Time Temperature Precipitation Wind Pressure Humidity
    00:00 +9°C° 0 mm 1 mps 714 mmHg 23%
    01:00 +9°C° 0 mm 1 mps 714 mmHg 23%
    02:00 +9°C° 0 mm 1 mps 713 mmHg 22%
    03:00 +9°C° 0 mm 1 mps 713 mmHg 22%
    04:00 +9°C° 0 mm 1 mps 713 mmHg 22%
    05:00 +8°C° 0 mm 1 mps 713 mmHg 21%
    06:00 +9°C° 0 mm 1 mps 713 mmHg 21%
    07:00 +9°C° 0 mm 1 mps 713 mmHg 21%
    08:00 +9°C° 0 mm 1 mps 713 mmHg 21%
    09:00 +12°C° 0 mm 1 mps 713 mmHg 21%
    10:00 +14°C° 0 mm 1 mps 714 mmHg 21%
    11:00 +18°C° 0 mm 1 mps 714 mmHg 20%
    12:00 +18°C° 0 mm 1 mps 713 mmHg 20%
    13:00 +19°C° 0 mm 1 mps 713 mmHg 20%
    14:00 +19°C° 0 mm 1 mps 712 mmHg 19%
    15:00 +16°C° 0 mm 1 mps 712 mmHg 20%
    16:00 +15°C° 0 mm 1 mps 712 mmHg 21%
    17:00 +12°C° 0 mm 0 mps 712 mmHg 22%
    18:00 +13°C° 0 mm 1 mps 713 mmHg 22%
    19:00 +12°C° 0 mm 1 mps 714 mmHg 22%
    20:00 +11°C° 0 mm 1 mps 714 mmHg 21%
    21:00 +11°C° 0 mm 1 mps 714 mmHg 21%
    22:00 +11°C° 0 mm 1 mps 714 mmHg 21%
    23:00 +11°C° 0 mm 1 mps 714 mmHg 21%

    16 December, Sunday

    Time Temperature Precipitation Wind Pressure Humidity
    00:00 +10°C° 0 mm 1 mps 714 mmHg 20%
    01:00 +10°C° 0 mm 1 mps 714 mmHg 20%
    02:00 +9°C° 0 mm 2 mps 714 mmHg 19%
    03:00 +9°C° 0 mm 2 mps 714 mmHg 18%
    04:00 +9°C° 0 mm 2 mps 714 mmHg 18%
    05:00 +9°C° 0 mm 2 mps 714 mmHg 17%
    06:00 +9°C° 0 mm 2 mps 714 mmHg 17%
    07:00 +9°C° 0 mm 2 mps 714 mmHg 16%
    08:00 +9°C° 0 mm 2 mps 715 mmHg 16%
    09:00 +12°C° 0 mm 2 mps 715 mmHg 16%
    10:00 +15°C° 0 mm 1 mps 715 mmHg 15%
    11:00 +18°C° 0 mm 1 mps 715 mmHg 15%
    12:00 +19°C° 0 mm 1 mps 714 mmHg 15%
    13:00 +19°C° 0 mm 1 mps 714 mmHg 15%
    14:00 +20°C° 0 mm 1 mps 713 mmHg 14%
    15:00 +18°C° 0 mm 1 mps 713 mmHg 15%
    16:00 +15°C° 0 mm 1 mps 713 mmHg 16%
    17:00 +13°C° 0 mm 1 mps 713 mmHg 17%
    18:00 +13°C° 0 mm 1 mps 713 mmHg 16%
    19:00 +12°C° 0 mm 1 mps 713 mmHg 16%
    20:00 +12°C° 0 mm 2 mps 714 mmHg 15%
    21:00 +12°C° 0 mm 2 mps 714 mmHg 15%
    22:00 +10°C° 0 mm 2 mps 714 mmHg 15%
    23:00 +10°C° 0 mm 2 mps 714 mmHg 15%
    Show more